Regional Weather Roundup
Issued by NWS Green Bay, WI

Home | Current Version | Previous Version | Text Only | Print | Product List | Glossary On
Versions: 1 2 3 4 5 6 7 8 9 10 11 12 13 14 15 16 17 18 19 20 21 22 23 24 25 26 27 28 29 30 31 32 33 34 35 36 37 38 39 40 41 42 43 44 45 46 47 48 49 50
000
ASUS43 KGRB 020510
RWRGRB

NORTH-CENTRAL AND NORTHEAST WISCONSIN REGIONAL WEATHER ROUNDUP
NATIONAL WEATHER SERVICE GREEN BAY WI
1200 AM CDT THU OCT 02 2014

WIZ005-009-010>012-018-019-020600-
NORTH CENTRAL WISCONSIN

CITY           SKY/WX    TMP DP  RH WIND       PRES   REMARKS
IRONWOOD       NOT AVBL
MANITOWISH WTR CLOUDY    54  54 100 S5        29.87F
ARBOR VITAE    CLOUDY    57  55  93 S6        29.88S FOG
EAGLE RIVER    CLOUDY    54  53  97 CALM      29.88F FOG
LAND O LAKES   CLOUDY    54  52  93 S5        29.89F
RHINELANDER    CLOUDY    54  51  90 S5        29.89F
PHILLIPS       MOCLDY    54  53  97 S3        29.86F
ANTIGO         CLOUDY    52  51  96 S8        29.90S FOG
TOMAHAWK       CLOUDY    55  52  90 SE3       29.89S
MERRILL        CLOUDY    55  53  94 SE5       29.88S
$$

WIZ013-073-020600-
NORTHEAST WISCONSIN

CITY           SKY/WX    TMP DP  RH WIND       PRES   REMARKS
IRON MOUNTAIN  CLOUDY    53  51  93 SE6       29.90S
MARINETTE      NOT AVBL
OCONTO         CLOUDY    55  55 100 CALM      29.90F
$$

WIZ017-030-035>037-045-020600-
CENTRAL WISCONSIN

CITY           SKY/WX    TMP DP  RH WIND       PRES   REMARKS
MEDFORD        CLOUDY    55  53  93 SE5       29.86F
WAUSAU         CLOUDY    56  52  86 SE8       29.87F
MOSINEE        CLOUDY    54  54 100 SE7       29.89S
MARSHFIELD     CLOUDY    58  54  86 SE5       29.86F
WISC RAPIDS    CLOUDY    57  55  93 SE5       29.88F
STEVENS POINT  LGT RAIN  54  52  95 E6        29.89S
WAUPACA        CLOUDY    58  55  91 E5        29.89F
SHAWANO        CLOUDY    56  53  90 E3        29.91S
CLINTONVILLE   CLOUDY    54  52  94 SE3       29.90F FOG
$$

WIZ038-039-048-051-020600-
FOX VALLEY

CITY           SKY/WX    TMP DP  RH WIND       PRES   REMARKS
NWS GREEN BAY  CLOUDY    57  55  93 SE7       29.90F
APPLETON       CLOUDY    55  54  94 SE9       29.89F
OSHKOSH        CLOUDY    58  56  93 SE3       29.88F
FOND DU LAC    CLOUDY    59  54  83 S8        29.88F
$$

WIZ022-050-052-020600-
EAST CENTRAL WISCONSIN

CITY           SKY/WX    TMP DP  RH WIND       PRES   REMARKS
STURGEON BAY   NOT AVBL
MANITOWOC      NOT AVBL
SHEBOYGAN      CLOUDY    60  55  83 S7        29.90F
$$

LMZ563-521-522-541>543-020600-
LAKESHORE

STATION/POSITION TIME  TEMP    WIND        PRES    VSBY  WAVE
                       AIR SEA DIR/SP/G                  HT/PER
                 (UTC) (F)     (DEG/KT/KT) (MB)    (MI)  (FT/S)
SHEBOYGAN LKSHOR 0500   58 56  160/  9/ 10 1012.8F
KEWAUNEE LKSHORE 0500   55     180/  3/  3 1012.5
NORTHPORT PIER   0500   56     150/  7/ 11 1013.5S
N MID LAKE BUOY  0500   58 58  160/ 10/ 12 1013.8F         2/ 4
S GREEN BAY BUOY 0500   57     VRB 14/ 17  1013.3F
CHAMBERS ISLAND  0500   56     160/  2/  5 1013.5S
MENOMINEE LKSHOR 0500   57     160/  5/  7 1013.9
$$



USA.gov is the U.S. government's official web portal to all federal, state and local government web resources and services.